Simultaneous Nadir Overpasses (SNOs) Predictions

Prediction of SNOs between LANDSAT-8 and NOAA-19 Satellite Orbit:

Table of predicted SNOs for the next 14.0 days since TLE Epoch: 11/18/2017
Index Date (LANDSAT-8) Time (LANDSAT-8) Lat,Lon (LANDSAT-8) SZA (LANDSAT-8 ) Date (NOAA-19) Time (NOAA-19) Lat,Lon (NOAA-19) SZA (NOAA-19 ) Distance(km) Time Diff (sec)
1 11/19/2017 04:46:40 -76.86, -60.61 83.32 11/19/2017 04:46:17 -76.84, -60.65 83.34 2.25 23
2 11/19/2017 05:36:08 76.75, 106.65 96.57 11/19/2017 05:37:20 76.70, 107.16 96.57 14.19 72
3 11/21/2017 10:20:23 76.83, 35.86 97.15 11/21/2017 10:20:06 76.85, 35.91 97.17 3.02 17
4 11/21/2017 11:09:51 -76.80,-156.61 82.89 11/21/2017 11:11:00 -76.81,-156.64 82.86 1.64 69
5 11/23/2017 15:54:06 -76.87, 132.59 82.34 11/23/2017 15:53:43 -76.85, 132.61 82.37 3.25 23
6 11/23/2017 16:43:34 76.76, -60.17 97.54 11/23/2017 16:44:46 76.69, -59.52 97.53 18.25 72
7 11/25/2017 21:27:48 76.88,-130.82 98.10 11/25/2017 21:27:32 76.85,-130.81 98.07 2.82 16
8 11/25/2017 22:17:17 -76.81, 36.55 81.98 11/25/2017 22:18:26 -76.82, 36.60 81.95 2.07 69
9 11/28/2017 03:01:32 -76.87, -34.28 81.52 11/28/2017 03:01:09 -76.86, -34.17 81.53 3.22 23
10 11/28/2017 03:51:00 76.76, 132.95 98.36 11/28/2017 03:52:12 76.70, 133.72 98.37 20.49 72
11 11/30/2017 08:35:14 76.86, 62.27 98.84 11/30/2017 08:34:58 76.87, 62.39 98.85 3.25 16




NCC Satellite Simultaneous Nadir Overpasses (SNOs) Prediction Service
